Powrót do katalogu

THORAD AGENA D DEB

AktywnyLEO
NORAD 4734·DEBRIS·🇺🇸 United States

Wystrzelony Apr 8, 1970 z Vandenberg Space Force Base

Loading…

Następne Przeloty (najbliższe 24 godziny)

TLE

ŚwieżeSource: Space-Track

Epoka: Sep 14, 2026, 05:09 UTC

1 04734U 70025CH  26257.21485937  .00000123  00000-0  14542-3 0  9998
2 04734 100.1015 349.1751 0082963 129.2770 231.5780 13.86490948834906

Śledź THORAD AGENA D DEB w czasie rzeczywistym z AllMySat

Download on the App Store